Zurück zum Katalog

STARLINK-3232

AktivKommunikationVLEO
NORAD 50809·PAYLOAD·🇺🇸 United States

Gestartet Jan 6, 2022 von Cape Canaveral Space Force Station

Loading…

Nächste Überflüge (nächste 24 Stunden)

TLE

AktuellSource: CelesTrak SupGP

Epoche: Sep 14, 2026, 11:42 UTC

1 50809C 22001G   26257.48798611 -.00030446  00000+0 -97929-3 0  2577
2 50809  53.1602  19.7688 0001241  82.2704  43.5123 15.31709859    18

Verfolge STARLINK-3232 in Echtzeit mit AllMySat

Download on the App Store